www.pogodaiklimat.ru

Погода и климат >> Архив погоды >> Французская Полинезия >> Atuona


ПОГОДА в Atuona

  • Прогноз погоды в Atuona
  • Монитор погоды в Atuona
  • Климат города

АРХИВ ПОГОДЫ в Atuona

Время (UTC), дата Ветер
(напр.,м/с)
 
Видим.   Явления Облачность Т
(С)
Тd
(С)
f
(%)
Тe
(С)
Тes
(С)
Комфортность P
(гПа)
Po
(гПа)
Тmin
(С)
Tmax
(С)
R
(мм)
R24
(мм)
S
(см)
23 17.05 В 3 н/о н/о +29.3 +22.0 65 +38 +38 очень
душно
1011.7 1005.7
22 17.05 В 3 н/о 3/1 600 м
[Cu hum Ci fib]
+30.2 +22.1 62 +39 +50 очень
душно
1012.2 1006.2
00 18.05 В 3 н/о н/о +28.5 +21.5 66 +36 +36 очень
душно
1011.1 1005.1 +23.8
01 18.05 В 3 н/о 4/3 600 м
[Cu Sc Ci fib]
+27.7 +22.0 71 +36 +38 очень
душно
1010.6 1004.6
02 18.05 В 3 н/о н/о +27.2 +22.6 76 +36 +36 очень
душно
1010.9 1004.9
03 18.05 В 2 н/о н/о +26.6 +21.8 75 +34 +34 очень
душно
1011.4 1005.4
05 18.05 СЗ 1 н/о н/о +24.7 +21.6 83 +32 +32 очень
душно
1012.7 1006.6
04 18.05 СЗ 1 н/о н/о +25.4 +21.7 80 +33 +33 очень
душно
1012.0 1005.9
06 18.05 СЗ 1 н/о н/о +24.6 +21.7 84 +31 +31 очень
душно
1013.2 1007.1
07 18.05 штиль 0 н/о н/о +24.3 +22.0 87 +31 +31 очень
душно
1013.3 1007.2
08 18.05 С 1 н/о н/о +24.1 +21.6 86 +31 +31 очень
душно
1013.3 1007.2
09 18.05 СЗ 1 н/о н/о +24.2 +21.7 86 +31 +31 очень
душно
1013.0 1006.9
11 18.05 СЗ 1 н/о н/о +24.9 +21.8 83 +32 +32 очень
душно
1012.3 1006.2
10 18.05 СЗ 1 н/о н/о +24.5 +21.6 84 +31 +31 очень
душно
1012.7 1006.6
12 18.05 СВ 1 н/о н/о +25.0 +21.7 82 +32 +32 очень
душно
1012.0 1005.9 +31.0 +31.0
13 18.05 ЮВ 1 н/о н/о +25.1 +21.8 82 +32 +32 очень
душно
1012.1 1006.0
14 18.05 В 1 н/о н/о +25.9 +21.6 77 +33 +33 очень
душно
1012.1 1006.1
15 18.05 В 2 50 км 9/9 300 м
[Cu med, cong]
+26.2 1012.3
17 18.05 В 2 50 км 5/5 600 м
[Cu med, cong]
+28.4 1013.7
16 18.05 В 1 50 км 8/8 600 м
[Cu med, cong]
+25.6 1013.2
18 18.05 В 3 50 км {ливн. осадки, дождь} 4/4 600 м
[Cu med, cong]
+29.4 +22.4 66 +38 +42 очень
душно
1014.2 1008.2 0.2
19 18.05 В 2 50 км 4/4 600 м
[Cu med, cong]
+30.6 1014.1
20 18.05 В 2 н/о 4/4 600 м
[Cu med, cong]
+30.7 1013.7
21 18.05 В 3 н/о 3/3 600 м
[Cu med, cong]
+30.6 1012.9
23 18.05 В 3 н/о 3/3 600 м
[Cu med, cong]
+29.0 1010.9
22 18.05 В 3 н/о 3/3 600 м
[Cu med, cong]
+30.5 1011.8
00 19.05 В 3 н/о 3/3 600 м
[Cu med, cong]
+29.3 1010.4 1004.4 0.2
01 19.05 В 4 н/о 3/3 600 м
[Cu med, cong]
+27.6 1010.2
02 19.05 В 3 н/о н/о +27.1 +21.8 73 +35 +35 очень
душно
1010.8 1004.8
03 19.05 В 2 н/о н/о +26.8 +22.4 77 +35 +35 очень
душно
1011.3 1005.3
05 19.05 В 3
{10}
н/о н/о +26.3 +21.9 77 +34 +34 очень
душно
1012.7 1006.7
04 19.05 В 3 н/о н/о +26.8 +22.6 78 +35 +35 очень
душно
1011.8 1005.8
06 19.05 В 5
{13}
н/о н/о +26.9 +22.1 75 +35 +35 очень
душно
1012.9 1006.9
07 19.05 В 8
{12}
н/о н/о +26.8 +21.6 73 +34 +34 очень
душно
1012.8 1006.8
08 19.05 В 6
{12}
н/о н/о +26.7 +21.5 73 +34 +34 очень
душно
1012.5 1006.5
09 19.05 В 5
{12}
н/о н/о +26.7 +21.9 75 +34 +34 очень
душно
1012.4 1006.4
11 19.05 В 5
{12}
н/о н/о +26.5 +21.0 72 +33 +33 очень
душно
1011.7 1005.7
10 19.05 В 7
{12}
н/о н/о +26.5 +21.0 72 +33 +33 очень
душно
1012.0 1006.0
12 19.05 В 4
{10}
н/о н/о +26.3 +20.8 72 +33 +33 очень
душно
1011.4 1005.4 +31.3
13 19.05 В 5
{12}
н/о н/о +26.3 +20.6 71 +33 +33 очень
душно
1011.3 1005.3
14 19.05 В 5
{10}
н/о н/о +26.1 +20.4 71 +32 +32 очень
душно
1011.7 1005.7
15 19.05 В 1 н/о 4/4 600 м
[Cu med, cong]
+25.6 1012.3
17 19.05 Ю 1 н/о 4/4 600 м
[Cu med, cong]
+25.8 1013.6
16 19.05 В 1 н/о 4/4 600 м
[Cu med, cong]
+25.5 1013.0
18 19.05 В 3 50 км 3/3 600 м
[Cu med, cong]
+28.7 1013.8 1007.8
19 19.05 В 3 н/о 4/4 600 м
[Cu med, cong Ci fib]
+27.3 1014.0
20 19.05 В 3 н/о 3/3 600 м
[Cu med, cong]
+29.0 1013.4
21 19.05 В 3 н/о 3/3 600 м
[Cu med, cong]
+29.4 1012.7
23 19.05 В 2 н/о 3/3 600 м
[Cu med, cong]
+29.8 1011.3
22 19.05 В 2 н/о 3/3 600 м
[Cu med, cong]
+29.4 1012.0
00 20.05 В 2 н/о 3/3 600 м
[Cu med, cong]
+29.0 1010.5 1004.5
01 20.05 В 2 н/о 4/4 600 м
[Cu med, cong]
+27.6 1010.4
02 20.05 В 2 н/о н/о +26.8 +21.3 72 +34 +34 очень
душно
1010.4 1004.4
03 20.05 С 1 н/о н/о +26.4 +21.4 74 +34 +34 очень
душно
1010.8 1004.8
05 20.05 В 2 н/о н/о +26.4 +22.0 77 +34 +34 очень
душно
1012.1 1006.1
04 20.05 С 1 н/о н/о +25.6 +21.7 79 +33 +33 очень
душно
1011.3 1005.3
06 20.05 В 2 н/о н/о +26.5 +21.7 75 +34 +34 очень
душно
1012.5 1006.5
07 20.05 В 1 н/о н/о +26.2 +21.0 73 +33 +33 очень
душно
1012.7 1006.7
08 20.05 СЗ 1 н/о н/о +24.9 +20.8 78 +31 +31 очень
душно
1012.8 1006.7
09 20.05 С 1 н/о н/о +23.8 +20.7 83 +30 +30 очень
душно
1012.7 1006.6
11 20.05 С 1 н/о н/о +23.7 +20.8 84 +30 +30 очень
душно
1012.4 1006.3
10 20.05 СВ 1 н/о н/о +23.4 +20.7 85 +31 +31 очень
душно
1012.6 1006.5
12 20.05 СЗ 1 н/о н/о +23.7 +20.6 83 +30 +30 очень
душно
1012.2 1006.1 +30.4 +30.4
13 20.05 С 1 н/о н/о +23.4 +20.3 83 +31 +31 очень
душно
1012.3 1006.2
14 20.05 С 1 н/о н/о +23.4 +20.3 83 +31 +31 очень
душно
1012.6 1006.5
15 20.05 штиль 0 н/о 4/4 600 м
[Cu med, cong]
+23.2 +20.5 85 +31 +31 очень
душно
1013.1 1007.0
17 20.05 С 1 н/о н/о +26.4 +21.2 73 +33 +33 очень
душно
1014.2 1008.2
16 20.05 СВ 1 н/о 5/4 600 м
[Cu med, cong Ci fib]
+23.2 +20.5 85 +31 +31 очень
душно
1013.6 1007.5
18 20.05 В 3 н/о н/о +28.7 +20.7 62 +36 +36 очень
душно
1014.4 1008.4
19 20.05 В 4 н/о н/о +29.9 +20.2 56 +36 +36 очень
душно
1014.2 1008.2
20 20.05 В 4 н/о н/о +29.0 +20.2 59 +35 +35 очень
душно
1013.5 1007.5
21 20.05 В 4 н/о н/о +29.1 +19.7 57 +35 +35 очень
душно
1012.8 1006.8
23 20.05 В 4 н/о н/о +28.4 +20.7 63 +35 +35 очень
душно
1011.1 1005.1
22 20.05 В 4 н/о н/о +28.8 +20.3 60 +35 +35 очень
душно
1011.7 1005.7
00 21.05 В 4 н/о н/о +28.3 +19.8 60 +34 +34 очень
душно
1010.8 1004.8 +23.0
01 21.05 В 3 н/о н/о +27.6 +19.7 62 +33 +33 очень
душно
1010.5 1004.5
02 21.05 В 2 н/о н/о +26.9 +19.5 64 +33 +33 очень
душно
1010.9 1004.9
03 21.05 В 1 н/о н/о +26.5 +20.1 68 +33 +33 очень
душно
1011.6 1005.6
05 21.05 СВ 1
{2}
н/о н/о +24.6 +20.7 79 +31 +31 очень
душно
1012.5 1006.4
04 21.05 СЗ 1 н/о н/о +25.1 +20.4 75 +31 +31 очень
душно
1012.1 1006.0
06 21.05 СВ 1
{2}
н/о н/о +23.8 +20.3 81 +29 +29 душно 1013.0 1006.9
07 21.05 С 1
{3}
н/о н/о +24.1 +20.4 80 +30 +30 очень
душно
1013.0 1006.9
08 21.05 С 2
{4}
н/о н/о +24.4 +20.1 77 +30 +30 очень
душно
1012.8 1006.7
09 21.05 С 2
{3}
н/о н/о +23.9 +20.4 81 +30 +30 очень
душно
1012.5 1006.4
11 21.05 З 1
{3}
н/о н/о +23.7 +20.4 82 +29 +29 душно 1011.5 1005.4
10 21.05 СВ 1
{3}
н/о н/о +23.5 +20.2 82 +29 +29 душно 1012.0 1005.9
12 21.05 СВ 1 н/о н/о +23.2 +20.3 84 +30 +30 очень
душно
1011.4 1005.3 +30.0 +30.0
13 21.05 СВ 1 н/о н/о +23.3 +20.4 84 +31 +31 очень
душно
1011.4 1005.3
14 21.05 С 1 н/о н/о +23.1 +20.1 83 +30 +30 очень
душно
1011.6 1005.5
15 21.05 СВ 1 н/о 3/3 600 м
[Cu med, cong]
+22.9 +19.7 82 +29 +29 очень
душно
1012.0 1005.9
17 21.05 СВ 1 н/о 4/4 600 м
[Cu med, cong]
+25.2 +20.2 74 +31 +33 очень
душно
1013.4 1007.3
16 21.05 С 1 н/о н/о +22.8 +19.8 83 +29 +29 очень
душно
1012.7 1006.6
18 21.05 штиль 0 н/о 3/3 600 м
[Cu hum]
+28.0 +21.3 67 +35 +42 очень
душно
1014.0 1008.0
19 21.05 В 4 н/о 3/3 600 м
[Cu hum]
+29.0 +21.0 62 +36 +42 очень
душно
1013.6 1007.6
20 21.05 В 5 н/о 3/3 600 м
[Cu Sc]
+28.9 +20.6 61 +36 +42 очень
душно
1013.2 1007.2
21 21.05 В 4 н/о н/о +28.7 +20.7 62 +36 +36 очень
душно
1012.4 1006.4
23 21.05 В 4 н/о 1/1 600 м
[Cu hum]
+28.4 +20.9 64 +36 +43 очень
душно
1011.0 1005.0
22 21.05 В 5 н/о 3/3 600 м
[Cu Sc]
+28.4 +20.9 64 +36 +42 очень
душно
1011.6 1005.6
00 22.05 В 4 н/о н/о +28.0 +20.8 65 +35 +35 очень
душно
1010.6 1004.6 +22.5
01 22.05 В 4 н/о н/о +27.3 +20.9 68 +34 +34 очень
душно
1010.5 1004.5
02 22.05 В 3 н/о н/о +26.8 +19.9 66 +33 +33 очень
душно
1010.7 1004.7
03 22.05 В 2 н/о н/о +26.3 +20.2 69 +32 +32 очень
душно
1011.3 1005.3
05 22.05 СВ 1
{3}
н/о н/о +24.0 +20.3 80 +30 +30 очень
душно
1012.6 1006.5
04 22.05 С 1 н/о н/о +24.8 +20.5 77 +31 +31 очень
душно
1012.0 1005.9
06 22.05 С 1
{2}
н/о н/о +23.9 +20.6 82 +30 +30 очень
душно
1012.8 1006.7
07 22.05 СЗ 1 н/о н/о +23.6 +20.5 83 +29 +29 душно 1012.9 1006.8
08 22.05 СВ 1 н/о н/о +23.4 +20.3 83 +31 +31 очень
душно
1012.6 1006.5
09 22.05 С 1 н/о н/о +23.9 +20.6 82 +30 +30 очень
душно
1012.1 1006.0
11 22.05 С 1 н/о н/о +24.0 +20.3 80 +30 +30 очень
душно
1011.5 1005.4
10 22.05 СВ 1 н/о н/о +24.8 +20.3 76 +31 +31 очень
душно
1011.8 1005.7
12 22.05 С 1 н/о н/о +23.0 +20.3 85 +30 +30 очень
душно
1010.9 1004.8 +29.6 +29.6
13 22.05 С 1 н/о н/о +22.7 +20.0 85 +29 +29 очень
душно
1010.8 1004.7
14 22.05 С 1 н/о н/о +22.7 +19.7 83 +29 +29 очень
душно
1011.2 1005.1
15 22.05 СЗ 1 н/о 5/5 600 м
[Cu med, cong]
+23.3 1011.6 1006.2
17 22.05 С 1 н/о слабый ливневой дождь 9/9 600 м
[Cu med, cong]
+24.0 1013.0 1006.9
16 22.05 СВ 1 н/о 5/5 600 м
[Cu med, cong]
+23.7 1012.3
18 22.05 В 2 30 км слабый ливневой дождь 9/9 600 м
[Cu med, cong]
+24.8 +22.3 86 +32 +33 очень
душно
1013.5 1007.4 3
19 22.05 В 2 н/о в посл. час ливневой дождь 9/9 600 м
[Cu med, cong]
+25.5 1013.2 1007.1
20 22.05 В 1 30 км слабый ливневой дождь 9/9 600 м
[Cu med, cong]
+26.1 1012.6 1006.6
21 22.05 ЮВ 1 5000 м слабый ливневой дождь 9/9 600 м
[Cu med, cong]
+26.0 1011.7 1005.7
23 22.05 ЮВ 2 50 км в посл. час ливневой дождь 5/5 600 м
[Cu Sc]
+27.2 1010.2 1004.2
22 22.05 Ю 1 10 км слабый ливневой дождь 9/9 600 м
[Cu Sc]
+26.2 1011.2 1005.2
00 23.05 В 3 50 км {ливн. осадки, дождь} 5/5 600 м
[Cu Sc]
+26.7 +22.3 77 +35 +39 очень
душно
1009.8 1003.8 5
01 23.05 В 3 н/о 4/4 600 м
[Cu Sc]
+26.5 1009.9
02 23.05 СВ 1 н/о н/о +25.6 +22.9 85 +34 +34 очень
душно
1010.2 1004.2 1
03 23.05 З 1 н/о н/о +25.1 +22.6 86 +33 +33 очень
душно
1010.7 1004.7 1
05 23.05 СВ 1
{3}
н/о н/о +23.8 +22.1 90 +31 +31 очень
душно
1012.2 1006.1
04 23.05 С 1 н/о н/о +24.2 +22.5 90 +32 +32 очень
душно
1011.7 1005.6
06 23.05 С 2
{5}
н/о н/о +23.7 +22.3 92 +31 +31 очень
душно
1012.8 1006.7 1
07 23.05 СВ 1
{3}
н/о н/о +23.6 +22.2 92 +31 +31 очень
душно
1012.9 1006.8
08 23.05 С 1
{4}
н/о н/о +23.6 +22.2 92 +31 +31 очень
душно
1012.7 1006.6
09 23.05 СЗ 2
{4}
н/о н/о +23.8 +22.6 93 +31 +31 очень
душно
1012.4 1006.3 5
11 23.05 СВ 1 н/о н/о +23.5 +22.5 94 +31 +31 очень
душно
1011.4 1005.3 4
10 23.05 СВ 1 н/о н/о +23.6 +22.6 94 +31 +31 очень
душно
1011.9 1005.8
12 23.05 СЗ 1 н/о н/о +23.6 +22.6 94 +31 +31 очень
душно
1011.2 1005.1 +27.6 +27.6 10
13 23.05 С 1 н/о н/о +23.4 +22.4 94 +32 +32 очень
душно
1011.1 1005.0 3
14 23.05 В 1 н/о н/о +23.7 +22.9 95 +31 +31 очень
душно
1011.6 1005.5 0.4
15 23.05 СЗ 1 н/о в посл. час ливневой дождь 9/9 300 м
[Cu Sc]
+23.5 1012.3 1006.2
17 23.05 З 1 30 км осадки на расстоянии 8/8 300 м
[Cu Sc]
+24.5 1013.3 1007.2
16 23.05 С 1 н/о осадки на расстоянии 9/9 300 м
[Cu Sc]
+23.7 1013.0 1006.9
18 23.05 З 1 30 км в посл. час ливневой дождь 5/5 600 м
[Cu Sc]
+26.6 +23.1 81 +36 +39 очень
душно
1013.7 1007.7 4
19 23.05 В 2 50 км 4/4 600 м
[Cu med, cong Ci fib]
+27.7 1013.6
20 23.05 В 3 50 км 3/3 600 м
[Cu med, cong Ci fib]
+28.5 1012.9
21 23.05 В 4 50 км осадки на расстоянии 9/9 300 м
[Cu med, cong]
+26.8 1012.0 1006.0
23 23.05 В 3 30 км в посл. час ливневой дождь 8/8 300 м
[Cu med, cong]
+25.6 1010.4 1004.4
22 23.05 Ю 1 10 км в посл. час ливневой дождь 9/9 300 м
[Cu med, cong]
+26.9 1011.1 1005.1
00 24.05 В 2 н/о {ливн. осадки, дождь} 8/8 300 м
[Cu Sc]
+26.5 +23.2 82 +36 +37 очень
душно
1009.9 1003.9 17
01 24.05 В 1 н/о 8/8 300 м
[Cu Sc]
+26.3 1009.7
02 24.05 В 2 н/о н/о +26.4 +22.3 78 +34 +34 очень
душно
1010.1 1004.1
03 24.05 СЗ 1 н/о н/о +26.1 +22.2 79 +34 +34 очень
душно
1010.6 1004.6
05 24.05 СЗ 2
{3}
н/о н/о +24.8 +22.3 86 +32 +32 очень
душно
1012.3 1006.2
04 24.05 СЗ 1 н/о н/о +25.2 +22.5 85 +33 +33 очень
душно
1011.3 1005.3
06 24.05 СЗ 1
{3}
н/о н/о +24.2 +22.1 88 +31 +31 очень
душно
1012.9 1006.8
07 24.05 СВ 1
{3}
н/о н/о +24.1 +22.0 88 +31 +31 очень
душно
1013.1 1007.0
08 24.05 СВ 1
{3}
н/о н/о +23.9 +21.8 88 +31 +31 очень
душно
1012.8 1006.7
09 24.05 СВ 2
{3}
н/о н/о +23.8 +21.5 87 +30 +30 очень
душно
1012.5 1006.4
11 24.05 СВ 1 н/о н/о +23.3 +21.0 87 +31 +31 очень
душно
1011.7 1005.6
10 24.05 штиль 0
{2}
н/о н/о +23.3 +21.2 88 +31 +31 очень
душно
1012.1 1006.0
12 24.05 СВ 1 н/о н/о +23.3 +21.2 88 +31 +31 очень
душно
1011.6 1005.5 +29.6 +29.6
13 24.05 СВ 1 н/о н/о +23.3 +21.2 88 +31 +31 очень
душно
1011.6 1005.5
14 24.05 штиль 0 н/о н/о +23.2 +21.1 88 +31 +31 очень
душно
1011.9 1005.8
15 24.05 штиль 0 30 км 3/3 600 м
[Cu med, cong]
+23.6 +21.5 88 +30 +30 очень
душно
1012.3 1006.2
17 24.05 ЮВ 4 н/о н/о +25.0 +23.1 89 +33 +33 очень
душно
1014.1 1008.0
16 24.05 СЗ 1 н/о 8/8 600 м
[Cu Sc]
+23.7 +21.8 89 +30 +30 очень
душно
1013.3 1007.2
18 24.05 Ю 1 н/о н/о +26.0 +23.5 86 +35 +35 очень
душно
1014.7 1008.7 0.2
19 24.05 В 2 н/о н/о +27.5 +22.9 76 +37 +37 очень
душно
1014.6 1008.6
20 24.05 СВ 1 н/о н/о +27.9 +21.4 68 +36 +36 очень
душно
1014.0 1008.0
21 24.05 Ю 1 н/о н/о +28.4 +21.2 65 +36 +36 очень
душно
1013.1 1007.1
22 24.05 ЮЗ 1 н/о н/о +27.7 +22.6 74 +37 +37 очень
душно
1012.0 1006.0

 

Местоположение метеостанции Atuona (Французская Полинезия): широта -9.80 долгота -139.00 высота над уровнем моря 53 м.

В архиве по умолчанию представлена погода в Atuona за последнюю неделю. Архивные данные за месяц целиком и за предыдущие месяцы, начиная с января 2011 года, Вы можете получить, выбрав интересующий диапазон дат из раскрывающегося списка и нажав кнопку "Ввод!".


*Определитесь, кто Вы:
робот инопланетянин человек

Внимание! Время в таблицах - всемирное. Для получения местного времени необходимо прибавить поправку, которая в Atuona равна -10 ч.

Смотрите также архив погоды в соседних городах и на ближайших метеорологических станциях:

Погода в Takaroa (Французская Полинезия) (834 км)
Погода в Hao (Французская Полинезия) (941 км)
Погода в Hereheretue (Французская Полинезия) (1295 км)
Погода в Tautira (Французская Полинезия) (1409 км)
Погода в Tahiti-Faaa (Французская Полинезия) (1433 км)
Погода в Rikitea (Французская Полинезия) (1545 км)
Погода в Bora-Bora Airport (Французская Полинезия) (1560 км)
Погода в Tubuai (Французская Полинезия) (1869 км)
Погода в Pitcairn Island (Питкерн) (1942 км)
Погода в Rapa (Французская Полинезия) (2057 км)

Пояснения к столбцам:

Ветер - указаны скорость ветра в м/с - средняя за 10 мин, порывы в срок и между сроками (в фигурных скобках) и направление, откуда дует ветер: С - северный, СВ - северо-восточный, В - восточный, ЮВ - юго-восточный, Ю - южный, ЮЗ - юго-западный, З - западный, СЗ - северо-западный.
Видимость - горизонтальная дальность видимости в метрах или километрах. При видимости от 1 до 10 км при отсутствии осадков обычно наблюдается дымка, при ухудшении видимости до 1 км и менее - туман. В сухую погоду видимость может ухудшаться дымом, пылью или мглою.
Явления - указаны атмосферные явления, наблюдавшиеся в срок или в последний час перед сроком; фигурными скобками обозначены явления, наблюдавшиеся между сроками (за 1-3 часа до срока); квадратными скобками обозначены град или гололедные отложения с указанием их диаметра в мм.
Облачность - указаны через наклонную черту общая и нижняя облачность в баллах и высота нижней границы облаков в метрах; квадратными скобками обозначены формы облаков: Ci - перистые, Cs - перисто-слоистые, Cc - перисто-кучевые, Ac - высококучевые, As - высокослоистые, Sc - слоисто-кучевые, Ns - слоисто-дождевые, Cu - кучевые, Cb - кучево-дождевые. Подробнее классификацию облаков см. в Атласе облаков (PDF).
T - Температура воздуха - температура, измеренная на высоте 2 м над землей.
Td - Температура точки росы - температура, при понижении до которой содержащийся в воздухе водяной пар достигнет насыщения.
f - Относительная влажность воздуха - влажноcть воздуха, измеренная на высоте 2 м над землей.
Te - Эффективная температура - температура, которую ощущает одетый по сезону человек в тени. Характеристика душности погоды. При расчете учитывается влияние влажности воздуха и скорости ветра на теплоощущения человека.
Tes - Эффективная температура на солнце - температура, которую ощущает человек, с поправкой на солнечный нагрев. Характеристика знойности погоды. Зависит от высоты солнца над горизонтом, облачности и скорости ветра. Ночью, в пасмурную погоду, а также при ветре 12 м/с и более поправка равна нулю.
P - Атмосферное давление - приведенное к уровню моря атмосферное давление.
Po - Атмосферное давление - измеренное на уровне метеостанции атмосферное давление.
Tmin - Минимальная температура - минимум температуры воздуха на высоте 2 м над землей.
Tmax - Максимальная температура - максимум температуры воздуха на высоте 2 м над землей.
R - Количество осадков - Количество выпавших осадков за период времени, мм. При наведении курсора мыши на число - период времени, за который выпало указанное количество осадков.
R24 - Количество осадков - Количество выпавших осадков за 24 часа, мм.
S - Снежный покров - Высота снежного покрова, см. При наведении курсора мыши на число - состояние снежного покрова и степень покрытия местности в баллах.